Temp
20 20 20 19 19 19 19 19 19 18 19 19 19 19 19 19 19 19 18 18 18 18 18 18 19 19 19 19 20 20 19 19 19 20 20 19 19 19 19 19 19 18
20 20 19 19 19 19 19 19 18 18 18 18 19 19 19 18 18 18 18 18 18 18 18 18 18 18 18 18 19 19 19 19 19 20 19 19 19 19 19 19 19 18
20 19 19 19 19 19 19 18 18 18 18 18 18 18 18 18 18 18 18 17 17 17 17 17 17 17 17 17 17 18 18 18 19 19 19 19 19 19 19 19 18 18
19 19 19 19 19 19 18 18 18 18 18 18 18 18 18 18 17 17 17 17 17 17 17 17 17 16 16 17 17 17 17 17 18 18 18 18 18 18 18 18 18 18
19 19 19 19 19 18 18 18 18 18 18 18 18 18 18 17 17 17 17 17 17 17 16 16 16 16 16 16 16 17 17 17 17 17 17 18 18 18 18 18 18 18
19 19 19 19 18 18 18 18 18 18 18 18 18 18 18 18 17 17 17 17 17 16 16 16 16 16 16 16 16 16 16 17 17 17 17 17 17 18 18 18 18 18
19 19 19 19 19 18 18 18 18 18 18 18 18 18 18 18 18 17 17 17 16 16 16 17 16 16 16 16 16 16 16 16 17 17 17 17 17 17 17 17 18 18
19 19 19 19 19 18 18 18 18 18 18 18 18 18 18 18 18 17 17 17 16 16 16 17 17 17 17 16 16 16 16 16 16 17 17 17 17 17 17 17 17 17
20 19 19 19 19 19 18 18 18 18 18 18 18 18 18 18 18 17 17 17 17 16 16 16 16 16 16 16 16 16 16 16 16 16 17 17 17 17 17 17 17 17
20 19 19 19 19 19 19 18 18 18 18 18 18 18 18 18 18 17 18 17 17 17 17 17 17 16 16 16 16 16 16 16 16 16 16 16 17 17 17 17 17 17
20 20 19 20 20 19 19 19 18 18 18 18 18 18 18 18 18 18 18 18 17 17 17 17 17 16 16 15 16 16 16 16 16 16 16 16 17 17 17 17 17 17
20 20 20 20 20 19 19 19 19 18 18 18 18 18 18 18 18 18 18 18 18 17 17 17 17 17 16 16 16 16 16 16 16 16 16 16 16 17 17 17 17 17
20 20 20 20 20 20 19 19 19 18 18 18 18 18 18 18 18 18 18 18 18 18 17 17 17 17 17 16 16 16 15 15 15 15 16 16 16 17 17 17 17 17
20 20 20 20 20 20 20 19 19 19 19 18 18 18 18 18 18 18 19 18 18 18 17 17 17 17 17 16 16 16 15 15 15 15 15 16 16 17 16 16 17 17
20 20 20 20 20 20 20 20 19 19 19 19 18 18 18 18 18 18 18 19 19 18 18 17 17 17 17 16 15 16 15 15 15 15 15 15 16 16 16 16 16 17
20 20 20 20 20 20 20 20 20 19 19 19 19 19 19 19 19 19 19 19 19 18 18 18 17 17 17 16 15 16 15 14 14 15 15 15 15 16 16 16 16 16
21 21 21 21 21 20 20 20 20 20 20 19 19 19 19 19 19 19 19 19 19 18 18 18 18 17 16 15 16 16 15 14 15 15 15 15 15 15 16 16 16 16
21 21 21 21 21 20 20 20 20 20 20 19 19 20 19 19 19 19 19 19 18 18 18 18 18 16 15 15 16 16 16 15 15 15 15 15 15 15 16 16 16 17
21 21 21 21 21 20 20 20 20 20 20 20 19 20 19 19 19 19 19 19 19 18 17 17 17 16 15 16 16 16 16 15 15 15 14 14 15 15 15 16 16 17
21 21 21 21 21 21 20 20 20 20 20 20 19 20 19 19 19 19 20 20 19 18 17 16 17 16 16 16 15 15 16 15 14 14 14 13 13 13 13 14 14 15
21 21 21 21 21 21 20 20 20 20 20 20 20 20 20 19 19 20 20 20 19 19 18 17 17 17 16 16 15 15 15 15 14 14 14 13 12 12 12 12 12 12
21 21 21 21 21 20 20 20 20 20 20 20 20 20 20 20 20 20 20 20 19 19 18 18 17 17 16 16 16 15 15 15 14 14 13 13 12 12 12 12 11 12
21 21 21 21 20 20 20 20 20 20 20 20 20 20 20 20 20 20 20 20 19 18 18 17 17 17 16 16 16 15 15 15 14 14 13 13 12 12 12 12 11 11
21 21 21 20 20 20 20 20 20 20 20 20 20 19 20 20 20 20 20 20 19 19 18 17 17 17 16 16 16 15 15 14 14 14 13 13 13 12 12 12 11 11
21 21 21 21 21 20 20 20 20 20 20 20 20 19 20 20 20 20 20 20 19 19 18 17 17 17 16 16 16 16 15 15 14 14 14 13 13 13 13 12 12 12
20 20 21 21 20 20 20 20 20 20 20 20 20 19 19 20 20 20 20 19 19 19 18 17 17 17 17 16 16 16 15 15 14 14 14 13 13 12 12 12 12 12
Height
813 812 811 810 810 809 808 807 805 804 802 801 799 798 797 796 795 795 794 793 793 792 791 790 790 789 789 789 788 788 788 788 788 788 787 787 787 788 788 788 789 789
813 812 811 810 809 808 807 806 804 803 802 800 799 797 796 795 794 793 792 791 790 789 788 787 786 785 785 785 785 784 784 784 784 784 783 783 783 784 784 785 785 786
813 812 811 810 808 807 805 804 803 802 801 800 798 797 796 794 793 792 791 790 788 787 786 785 783 782 782 781 781 781 781 781 781 780 780 779 779 780 780 781 782 782
812 811 810 809 807 806 805 803 802 801 800 799 797 796 795 794 793 791 790 789 788 786 785 783 782 780 779 778 778 777 777 776 776 776 776 775 775 775 775 777 778 778
811 810 809 808 807 805 804 802 801 800 799 798 797 796 794 793 792 791 790 788 787 785 784 782 781 779 778 776 775 774 773 772 772 772 772 771 771 771 771 772 773 773
810 809 808 807 806 804 803 802 801 799 798 797 796 795 794 793 792 790 789 788 786 784 783 781 780 779 777 776 774 772 771 769 769 768 768 767 767 767 767 767 768 768
809 808 807 807 805 804 802 801 800 799 797 796 795 794 793 792 791 790 789 787 785 783 781 780 779 778 776 775 773 771 769 767 766 765 764 763 762 762 762 763 763 763
808 808 807 806 805 803 801 800 798 798 796 795 794 793 792 791 790 789 787 786 783 781 780 778 776 775 774 773 771 769 767 765 763 761 760 759 758 757 757 758 758 758
807 807 806 805 803 802 800 799 797 796 795 794 793 792 791 790 789 787 785 784 782 780 778 776 774 773 772 770 769 767 764 762 760 758 756 754 753 752 752 752 753 753
806 805 804 803 802 800 799 797 796 795 794 793 792 790 789 788 787 785 784 782 780 778 776 774 773 771 770 768 766 763 760 758 756 754 752 749 748 747 746 747 747 747
804 803 802 801 800 798 797 796 795 793 792 791 790 789 787 786 785 783 781 779 777 776 774 772 771 769 767 766 764 761 757 754 752 750 747 745 743 742 741 741 741 741
802 801 800 799 798 797 796 795 793 792 791 790 789 787 786 784 782 781 779 777 775 774 772 770 768 767 765 764 762 759 755 751 748 746 743 740 738 737 736 735 736 736
801 800 799 797 796 795 794 793 791 790 789 788 787 786 785 783 780 778 776 775 774 772 770 768 766 764 763 762 760 756 752 748 744 741 739 736 733 731 730 730 731 732
800 799 797 796 795 793 792 791 790 789 787 786 785 784 783 781 778 776 774 773 772 770 768 766 764 762 761 760 757 754 749 744 739 736 734 732 730 728 726 726 726 726
798 797 795 794 793 792 790 789 788 786 785 784 783 781 781 779 777 774 772 771 770 768 766 765 763 761 760 758 755 751 746 741 736 732 730 728 726 725 723 721 721 721
796 795 794 793 791 790 789 787 786 784 783 782 780 779 778 777 775 773 771 769 768 766 765 763 761 759 758 756 754 749 744 738 733 729 726 724 722 721 719 718 717 717
794 792 792 790 789 788 787 785 784 782 781 779 778 777 776 774 772 770 768 767 766 764 762 761 759 758 757 755 752 748 742 737 732 728 725 722 719 716 715 714 713 713
792 790 789 788 787 786 785 783 782 780 778 777 776 774 773 772 770 768 766 765 764 762 760 759 759 758 757 754 751 746 742 737 733 729 725 720 715 712 710 709 708 708
790 789 787 786 785 784 783 781 780 778 776 775 774 773 771 770 768 766 764 763 762 760 758 758 759 757 754 752 749 746 743 738 734 730 726 720 714 710 708 706 705 704
788 787 786 785 784 782 781 779 778 776 775 774 772 771 769 768 766 764 763 761 760 759 757 757 757 755 753 751 749 746 743 739 735 731 726 722 716 711 708 706 704 702
786 785 784 783 782 781 779 777 776 775 773 772 771 769 768 766 765 763 762 760 759 758 757 756 755 754 752 751 749 746 743 739 736 732 727 723 720 714 709 706 704 701
785 783 782 781 780 779 777 776 775 773 772 771 769 768 767 765 763 762 761 759 758 757 756 755 754 753 752 750 748 746 743 739 736 733 728 725 721 716 711 707 705 702
783 782 781 779 778 777 776 774 773 772 771 769 768 767 765 764 763 761 760 758 756 756 755 754 753 752 751 749 747 745 742 739 736 733 730 727 723 718 713 710 707 703
781 780 779 778 776 776 774 773 772 770 769 768 766 765 764 763 761 760 759 757 755 754 754 753 752 751 749 748 746 744 741 739 737 734 731 729 724 719 715 711 708 703
779 778 777 776 775 774 773 772 770 769 768 766 765 764 762 762 760 759 758 756 755 753 752 751 751 749 748 747 745 743 741 739 737 735 732 729 725 720 716 712 709 705
777 777 776 775 773 772 771 771 769 768 766 765 764 763 761 760 759 758 757 755 754 752 751 750 749 747 746 745 744 742 740 738 737 735 732 729 725 721 717 714 710 705
Wind_Speed
14 14 14 15 15 15 15 14 13 12 13 14 15 15 15 15 14 14 14 14 15 17 18 19 19 20 21 21 22 23 23 22 22 24 24 24 25 26 28 29 29 29
11 13 14 15 16 16 15 14 14 12 11 12 13 14 15 15 15 14 15 16 16 17 18 19 20 20 21 22 22 22 23 24 25 26 25 25 26 26 27 28 29 30
9 10 12 13 14 15 15 14 13 12 12 12 12 13 14 14 14 14 14 15 16 17 18 19 19 20 20 21 22 23 24 25 26 27 27 27 27 27 27 28 29 29
8 8 10 11 12 13 14 14 12 11 12 13 13 13 13 13 14 14 15 16 18 19 19 19 19 19 20 20 21 22 24 26 26 27 27 27 28 28 29 28 28 29
8 8 10 12 13 14 14 13 12 11 12 13 14 14 13 13 14 16 17 18 20 20 20 20 20 19 19 20 20 21 23 24 26 27 27 28 29 29 30 29 28 29
8 9 10 13 15 15 15 13 11 10 12 13 14 14 14 14 15 17 18 19 20 21 20 20 21 21 20 20 20 21 22 23 25 27 27 29 30 30 31 31 30 30
9 10 10 13 16 17 16 13 12 12 13 14 14 14 15 15 16 17 18 19 20 20 20 22 22 23 23 22 21 21 22 23 26 27 28 29 30 31 31 32 32 31
10 11 11 14 16 17 17 15 14 14 15 16 16 15 15 16 17 18 19 19 20 20 21 23 24 25 25 25 23 23 24 24 25 26 28 29 30 31 32 31 32 32
11 12 12 14 15 16 17 16 15 15 15 16 16 16 16 16 16 18 20 21 20 21 22 24 26 26 26 25 25 25 25 26 26 26 28 29 30 32 33 32 32 32
12 13 13 14 15 15 16 16 16 15 15 16 16 16 16 17 17 18 21 23 23 24 24 25 26 27 27 27 26 26 27 28 28 27 28 29 31 33 32 32 32 32
13 14 14 14 15 15 16 16 16 15 15 15 16 17 18 18 18 19 21 24 25 26 26 26 27 27 28 28 27 27 28 28 27 26 26 27 29 32 33 32 32 33
14 14 14 14 16 17 17 17 17 17 16 16 16 18 19 19 19 20 23 25 25 25 26 26 29 29 26 24 25 25 27 28 26 25 25 24 25 28 32 33 32 32
14 14 14 15 16 17 18 18 18 18 18 18 18 19 19 18 18 20 23 24 24 25 25 25 28 28 23 22 24 26 28 30 28 27 25 23 23 25 28 31 30 30
14 14 15 15 16 17 18 18 19 19 19 20 20 20 19 18 18 19 21 22 23 23 23 25 27 26 22 22 26 29 31 33 32 29 26 24 24 23 25 29 31 31
14 15 15 16 16 17 17 17 18 19 20 21 21 20 19 18 17 19 20 21 22 21 21 24 25 23 21 22 26 31 34 35 34 30 26 25 24 24 24 26 30 31
15 15 15 16 16 17 17 17 18 19 20 21 21 19 19 18 18 19 19 20 21 20 19 21 22 20 20 22 26 32 34 34 33 31 27 25 24 24 24 25 27 30
14 15 15 16 17 18 18 18 18 19 20 21 20 19 19 19 19 19 18 18 19 18 17 18 20 19 17 21 27 31 32 31 31 31 30 27 25 25 25 24 25 27
15 16 16 16 16 17 18 18 18 18 19 19 19 18 18 18 18 18 17 17 16 15 15 17 19 18 16 21 27 29 29 29 29 30 30 29 25 23 25 25 25 27
16 18 19 17 16 17 18 18 18 18 18 18 17 17 17 18 18 17 17 16 14 13 12 12 16 17 17 22 25 26 27 27 28 28 28 27 26 21 19 21 22 26
17 19 19 17 15 17 18 18 17 17 16 16 15 15 17 18 17 16 16 15 14 13 13 11 13 15 17 21 23 25 25 24 25 27 27 26 24 22 20 19 18 20
18 19 18 16 16 18 19 17 16 16 16 15 15 15 16 16 15 15 15 15 15 14 14 13 12 13 15 19 21 22 23 23 25 27 28 26 24 24 24 24 23 22
18 18 16 16 18 19 18 17 15 15 16 15 14 14 14 14 14 14 16 17 16 14 13 13 11 10 13 17 20 21 21 21 23 25 27 26 25 25 27 26 26 27
17 16 17 18 18 18 17 16 15 15 15 15 14 12 11 12 13 14 15 18 17 13 12 12 12 11 13 15 18 20 19 19 21 23 25 26 25 26 27 26 27 28
15 15 16 17 17 16 15 14 14 14 14 13 13 12 9 10 13 14 15 17 18 14 11 12 13 14 13 14 16 18 18 17 18 20 22 23 24 26 28 27 27 30
14 14 14 14 14 14 13 13 13 12 11 12 13 11 8 8 11 13 14 16 17 16 13 11 13 14 12 12 15 17 16 15 17 18 19 20 21 25 27 28 28 32
13 12 12 12 12 13 13 12 10 9 9 10 11 11 9 9 10 11 13 14 15 16 15 12 11 12 11 11 13 15 15 14 14 15 17 18 18 21 24 26 28 32
Wind_Direction
317 319 324 329 330 332 334 335 337 338 339 341 341 340 340 337 331 324 317 309 302 296 291 288 284 283 282 278 277 276 273 267 261 261 262 255 252 252 250 247 242 236
311 316 324 329 330 330 328 327 329 332 334 336 336 337 340 340 337 332 326 319 312 306 300 296 291 285 282 279 278 277 274 270 267 266 264 257 253 249 247 246 241 237
312 321 330 334 333 331 328 324 323 325 329 332 335 339 342 342 340 338 334 327 321 316 310 305 299 292 287 282 280 279 275 270 266 265 263 259 255 250 246 245 243 241
315 322 329 331 332 331 327 324 322 323 327 330 334 338 341 342 342 342 339 334 328 323 318 312 306 300 293 286 281 278 276 273 269 266 262 259 255 251 247 244 241 241
316 321 326 329 331 330 328 325 324 328 330 331 334 336 336 339 342 342 340 337 333 329 324 319 314 308 301 296 288 281 277 274 272 268 263 260 256 253 250 245 240 239
320 322 330 337 337 332 327 323 323 327 330 332 336 336 333 333 336 339 337 335 334 330 326 322 319 314 309 304 299 290 283 278 276 272 267 262 258 254 251 247 241 240
322 321 327 336 338 334 327 317 311 317 324 329 333 334 332 328 327 331 333 330 328 327 327 325 322 319 316 311 305 299 293 288 283 277 270 264 259 255 252 247 242 240
318 317 319 324 329 332 331 322 312 312 317 322 325 329 329 325 322 323 323 321 319 318 320 321 321 320 317 312 307 303 300 296 290 282 272 265 260 256 251 247 243 240
312 315 317 318 322 327 332 332 325 318 316 316 319 324 325 323 320 317 315 315 315 315 315 315 316 316 314 311 308 305 302 299 295 286 277 269 262 257 252 246 243 240
308 312 312 314 318 322 327 333 332 326 320 316 315 318 320 321 321 318 316 315 315 317 318 318 316 314 313 311 308 306 302 298 296 291 284 276 266 258 252 246 242 239
308 312 311 311 314 318 323 328 330 327 322 318 316 316 316 317 319 320 319 318 317 318 320 322 323 322 321 317 315 314 309 303 300 300 297 288 275 263 255 248 242 239
306 311 311 311 314 318 321 322 324 323 319 317 317 318 319 319 318 318 317 317 319 322 324 326 329 332 333 326 322 323 320 315 310 307 307 303 292 276 261 250 244 240
301 309 312 314 318 321 321 321 322 321 318 316 316 317 321 323 321 314 310 313 320 323 326 327 328 332 333 326 325 327 324 321 316 308 304 304 302 290 270 254 245 241
295 303 308 314 320 323 324 324 323 322 320 318 315 315 317 320 321 314 307 313 321 323 324 326 329 332 328 320 326 331 328 323 320 312 302 296 297 294 276 256 246 241
290 297 305 314 319 322 325 326 326 326 323 320 317 316 315 315 317 315 312 315 322 325 325 327 332 334 326 320 329 336 333 328 323 317 305 295 293 294 284 264 250 244
288 296 305 313 317 320 322 323 325 326 325 322 319 316 316 315 314 313 313 316 320 323 322 325 332 333 323 325 338 342 339 334 329 323 313 299 289 288 287 275 258 249
291 298 306 312 317 319 319 319 321 322 322 322 319 316 317 318 316 312 309 311 316 318 316 321 331 331 325 335 348 351 348 344 341 336 330 316 296 282 279 277 267 258
292 298 303 310 317 320 319 317 316 317 319 319 317 319 321 321 319 315 308 308 315 314 309 320 330 331 338 352 358 1 4 2 357 352 347 341 326 297 276 270 266 261
293 297 302 309 317 320 318 315 314 315 317 318 318 321 323 321 320 318 310 308 315 308 296 314 332 336 350 2 2 5 11 10 5 0 356 354 353 338 305 285 274 268
293 298 303 309 317 321 317 314 315 317 319 322 324 324 324 323 322 322 315 309 312 307 296 309 335 346 357 3 1 3 9 10 6 4 2 358 1 5 356 340 323 303
295 300 303 308 316 320 318 315 315 320 324 327 328 326 326 327 327 325 318 309 306 305 301 311 336 353 357 358 359 2 7 12 9 6 6 2 3 13 15 7 358 342
295 299 299 305 314 317 316 316 317 323 328 331 331 327 326 330 330 325 321 315 308 301 299 308 329 350 352 352 357 0 5 14 14 10 9 6 4 14 19 12 5 356
292 296 300 307 314 316 316 317 318 324 330 331 329 324 323 328 329 326 329 330 321 306 298 306 321 339 345 345 351 357 2 12 16 14 14 10 7 13 17 12 5 1
288 293 302 311 316 317 318 319 320 323 326 327 323 318 314 321 325 330 339 343 336 321 306 307 320 334 339 337 342 351 358 8 13 15 15 12 12 17 18 13 8 8
283 290 301 310 313 316 319 320 320 321 323 326 325 320 315 318 324 330 338 344 344 337 323 314 322 335 341 336 337 344 352 0 10 16 15 10 14 22 22 18 15 15
278 288 295 299 304 311 315 316 319 327 334 335 333 330 328 327 326 328 333 339 344 343 337 327 325 335 341 337 335 341 347 352 0 12 15 11 13 20 22 21 18 19